This demonstration page uses our WeatherBlox Daily Observations layout. Learn more.

Left ArrowRight Arrow

39.01783, -85.05884

Hourly Observations for March 10, 2022

Temp ( °F °C ) Dew Point ( °F °C ) Humidity (%) Winds ( mph kmh ) Pressure ( in mb ) Visibility ( mi km ) Precip ( " mm )
12:52 am 00:52 Clear 37 2.8 24 -4.4 59 59 Calm 30.10 1019 10 16 0.00 0.00
1:52 am 01:52 Clear 38 3.3 24 -4.4 57 57 E 3 6 30.10 1019 10 16 0.00 0.00
2:52 am 02:52 Clear 35 1.7 26 -3.3 70 70 E 5 7 30.09 1019 10 16 0.00 0.00
3:52 am 03:52 Clear 36 2.2 25 -3.9 64 64 Calm 30.09 1019 10 16 0.00 0.00
4:52 am 04:52 Clear 32 0 28 -2.2 85 85 N 7 11 30.13 1020 10 16 0.00 0.00
5:52 am 05:52 Clear 31 -0.6 26 -3.3 82 82 N 7 11 30.13 1020 10 16 0.00 0.00
6:52 am 06:52 Clear 32 0 27 -2.8 82 82 N 8 13 30.14 1021 10 16 0.00 0.00
7:52 am 07:52 Partly Cloudy 34 1.1 28 -2.2 79 79 NNE 5 7 30.14 1021 7 11 0.00 0.00
8:52 am 08:52 Mostly Cloudy 38 3.3 30 -1.1 73 73 NNE 6 9 30.14 1021 9 14 0.00 0.00
9:52 am 09:52 Mostly Cloudy 43 6.1 31 -0.6 63 63 ENE 5 7 30.15 1021 10 16 0.00 0.00
10:52 am 10:52 Mostly Cloudy 47 8.3 29 -1.7 50 50 VRB 3 6 30.14 1021 9 14 0.00 0.00
11:52 am 11:52 Mostly Sunny 48 8.9 25 -3.9 41 41 Calm 30.13 1020 10 16 0.00 0.00
12:52 pm 12:52 Mostly Sunny 51 10.6 27 -2.8 39 39 ENE 8 13 30.11 1020 10 16 0.00 0.00
1:52 pm 13:52 Partly Cloudy 50 10 27 -2.8 41 41 N 5 7 30.08 1019 10 16 0.00 0.00
2:52 pm 14:52 Mostly Sunny 51 10.6 25 -3.9 36 36 SSW 3 6 30.05 1018 10 16 0.00 0.00
3:52 pm 15:52 Mostly Sunny 51 10.6 24 -4.4 35 35 Calm 30.05 1018 10 16 0.00 0.00
4:52 pm 16:52 Mostly Sunny 52 11.1 26 -3.3 37 37 N 6 9 30.06 1018 10 16 0.00 0.00
5:52 pm 17:52 Mostly Sunny 51 10.6 26 -3.3 38 38 NW 5 7 30.06 1018 10 16 0.00 0.00
6:52 pm 18:52 Mostly Clear 46 7.8 29 -1.7 51 51 N 8 13 30.06 1018 10 16 0.00 0.00
7:52 pm 19:52 Clear 46 7.8 29 -1.7 51 51 N 5 7 30.08 1019 10 16 0.00 0.00
8:52 pm 20:52 Clear 45 7.2 29 -1.7 54 54 NNE 3 6 30.07 1018 10 16 0.00 0.00
9:52 pm 21:52 Clear 42 5.6 29 -1.7 60 60 NNE 3 6 30.08 1019 10 16 0.00 0.00
10:52 pm 22:52 Clear 41 5 28 -2.2 60 60 Calm 30.06 1018 10 16 0.00 0.00
11:52 pm 23:52 Clear 41 5 29 -1.7 62 62 ESE 5 7 30.04 1017 10 16 0.00 0.00

Powered by AerisWeather